Weather Roundup
Issued by NWS Chicago, IL

Home | Current Version | Previous Version | Text Only | Print | Product List | Glossary Off
Versions: 1 2 3 4 5 6 7 8 9 10 11 12 13 14 15 16 17 18 19 20 21 22 23 24 25 26 27 28 29 30 31 32 33 34 35 36 37 38 39 40 41 42 43 44 45 46 47 48 49 50

000
NZUS59 KLOT 241800
HRRLOT

CHICAGO AREA WEATHER ROUNDUP
NATIONAL WEATHER SERVICE CHICAGO/ROMEOVILLE IL
100 PM CDT FRI OCT 24 2014

NOTE: "FAIR" INDICATES FEW OR NO CLOUDS BELOW 12,000 FEET WITH NO
SIGNIFICANT WEATHER AND/OR OBSTRUCTIONS TO VISIBILITY.

* THESE STATIONS ARE NOT UNDER NWS QUALITY CONTROL. THEY ALSO MAY NOT
  REPORT WEATHER SUCH AS PRECIPITATION OR FOG.

ILZ005-006-012>014-019>023-241900-
NORTHEAST ILLINOIS

CITY           SKY/WX    TMP DP  RH WIND       PRES   REMARKS
OHARE          PTSUNNY   62  48  60 SW3       30.01F
6HR MIN TEMP:  52; 6HR MAX TEMP:  62;

MIDWAY         PTSUNNY   63  50  62 SW6       30.02F
6HR MIN TEMP:  54; 6HR MAX TEMP:  64;

AURORA         PTSUNNY   64  50  60 VRB5      30.03F
6HR MIN TEMP:  46; 6HR MAX TEMP:  64;

WAUKEGAN       PTSUNNY   61  51  70 VRB3      30.01F
6HR MIN TEMP:  49; 6HR MAX TEMP:  61;

DUPAGE AIRPORT PTSUNNY   65  49  56 W6        30.02F
6HR MIN TEMP:  50; 6HR MAX TEMP:  65;

WHEELING       PTSUNNY   64  49  57 VRB6      30.03F
6HR MIN TEMP:  52; 6HR MAX TEMP:  64;

NORTHERLY IS     N/A     56  50  80 E8          N/A
$$

WIZ051-052-058>065-066-070>072-241900-
SOUTHEAST WISCONSIN

CITY           SKY/WX    TMP DP  RH WIND       PRES   REMARKS
MILWAUKEE      PTSUNNY   55  49  80 SW7       30.02F
6HR MIN TEMP:  50; 6HR MAX TEMP:  55;

KENOSHA*       CLOUDY    53  51  93 W9        30.02F FOG
RACINE*        CLOUDY    54  49  83 W8        30.03F
WAUKESHA       CLOUDY    52  48  87 SW7       30.03F
$$

INZ001>003-010>013-019-020-241900-
NORTHWEST INDIANA

CITY           SKY/WX    TMP DP  RH WIND       PRES   REMARKS
GARY*          PTSUNNY   64  50  59 S5        30.03F
MICHIGAN CITY* NOT AVBL
RENSSELAER*    NOT AVBL
$$

LMZ740>746-241900-
SOUTHERN LAKE MICHIGAN

STATION/POSITION TIME  SKY/WX   TEMP WIND        PRES    VSBY
                                AIR  DIR/SP/G
                 (UTC)          (F)  (DEG/KT/KT) (MB)    (MI)
HARRISON CRIB    1700            55  100/  5/  6   N/A
BURNHAM HARBOR   1800            57   90/  5/  6   N/A
CALUMET HARBOR   1700            61  250/  5/  8 1015.7F
BURNS HARBOR     NOT AVBL
MICHIGAN CITY    1700            54  240/  5/  5   N/A
$$

ABBREVIATIONS USED IN REMARKS
   TC - TEMPERATURE IN CELSIUS
  WCI - WIND CHILL INDEX
   HX - HEAT INDEX
  VSB - VISIBILITY
$$



USA.gov is the U.S. government's official web portal to all federal, state and local government web resources and services.